Find Starlink 32226

NORAD ID: 60426 Int'l Des: 2024-144 Owner: SPXS Country: US Constellation: starlink operational
LEOCIRCULAR

Live Position

Loading 3D Globe...

About Starlink 32226

Description loading...

Upcoming Passes

Passes for default location (London). Set your location on the main map for personalized predictions.

Altitude History

Loading altitude history...

Two-Line Element Set

1 60426U 24144B 26123.73731311 -.00000246 00000-0 38304-5 0 9999
2 60426 53.1606 321.6939 0001264 107.0585 253.0554 15.30194670 97739
Epoch: May 3, 2026 • Age: 8 hours

Current Status

Altitude 486.7 km
Velocity 7.62 km/s
Sub-Earth Point -33.88°S, 48.12°E
Launch Date Aug 12, 2024
Age 1.7 years
Type internet

Technical Details

Classification Payload
Mass 730.00 kg
Dry Mass 700.00 kg
Total Mass 730.00 kg
Length 0.30 m
Diameter 4.10 m
Span 29.00 m
Shape Box + pan
Manufacturer SPXS
Bus Type Starlink V2M
Phase Status In Orbit
Owner/State SPXS/US

Most Searched